Ulemiste current weather conditions

sailwx.info

Wind from 170 at 11 knots

Air temperature 1.0° C
Visibility: greater than 3.8 NM
Dewpoint -0.0° C
Present weather: Drizzle snow.

Last reported at 2017-Feb-27 21:20 UTC.
Time now 2017-Feb-27 22:47 UTC

Location: N 59°25' E 024°50'.
View on Google Maps.

See reports from other nearby stations

  
Tides and Currents Weather Stations Pressure Air Temp Water Temp Dewpoint Dewpoint Depression Visibility Wind Speed Wind Dir Waves Ship Positions
date/time (UTC)wind fromknots sea level pressurealtimeterstation pressurevisibilityair tempwater tempwave heightnotes
2017-Feb-27 21:20 170 11 3.8 1.0 Drizzle snow.
2017-Feb-27 20:50 160 9 5.4 1.0
2017-Feb-27 20:20 160 9 5.4 1.0
2017-Feb-27 19:50 160 8 5.4-0.0
2017-Feb-27 19:20 150 11 5.4-0.0
2017-Feb-27 18:50 160 9 5.4-0.0
2017-Feb-27 18:20 160 9 5.4-0.0
2017-Feb-27 17:50 160 9 5.4-0.0
2017-Feb-27 17:20 160 7 5.4-0.0
2017-Feb-27 16:50 150 7 5.4-0.0
2017-Feb-27 16:20 160 8 5.4-0.0
2017-Feb-27 15:50 150 7 5.4-0.0
2017-Feb-27 15:20 140 6 5.4-0.0
2017-Feb-27 14:50 140 6 5.4-0.0
2017-Feb-27 14:20 150 6 5.4-0.0
2017-Feb-27 13:50 170 6 5.4-0.0
2017-Feb-27 13:20 170 6 5.4-0.0
2017-Feb-27 12:50 190 6 5.4-0.0
2017-Feb-27 12:20 200 6 5.4-0.0
2017-Feb-27 11:50 200 6 5.4-0.0
2017-Feb-27 11:20 180 6 5.4-0.0
2017-Feb-27 10:50 200 4 5.4-0.0
2017-Feb-27 10:20 190 5 5.4-0.0
2017-Feb-27 09:50 210 1 5.4-0.0
2017-Feb-27 09:20 220 4 5.4-1.0
2017-Feb-27 08:50 230 4 5.4-1.0
2017-Feb-27 08:20 250 5 5.4-1.0
2017-Feb-27 07:50 210 2 5.4-1.0
2017-Feb-27 07:20 5.4-2.0
2017-Feb-27 06:50 230 2 5.4-2.0
2017-Feb-27 06:20 310 2 5.4-2.0
2017-Feb-27 05:50 310 4 5.4-2.0
2017-Feb-27 05:20 310 2 5.4-2.0
2017-Feb-27 04:50 340 2 5.4-2.0
2017-Feb-27 04:20 310 2 5.4-2.0
2017-Feb-27 03:50 050 4 5.4-2.0
2017-Feb-27 03:20 020 4 5.4-1.0
2017-Feb-27 02:50 010 4 5.4-1.0
2017-Feb-27 02:20 360 5 5.4-1.0
2017-Feb-27 01:50 360 6 5.4-1.0
2017-Feb-27 01:20 360 6 5.4-1.0
2017-Feb-27 00:50 010 6 4.3-1.0 Light snow.
2017-Feb-27 00:20 350 4 5.4-1.0 Light snow.
2017-Feb-26 23:50 350 5 5.4-1.0 Light snow.
2017-Feb-26 23:20 360 5 4.3-1.0 Light snow.
2017-Feb-26 22:50 360 6 4.3-1.0 Light snow.
2017-Feb-26 22:20 350 4 1.2-0.0 Snow. Mist.
2017-Feb-26 21:50 360 5 1.0-0.0 Heavy snow. Mist.
2017-Feb-26 21:20 010 6 1.6-0.0 Snow. Mist.
2017-Feb-26 20:50 010 6 1.3-0.0 Light snow. Mist.
2017-Feb-26 20:20 350 2 1.3-0.0 Light rain. Mist.
2017-Feb-26 19:50 300 2 0.2 1.0 Light drizzle. Fog.
2017-Feb-26 19:20 270 5 0.1-0.0 Light drizzle. Fog.
2017-Feb-26 18:50 260 2 0.2 1.0 Light drizzle. Fog.
2017-Feb-26 18:20 240 2 0.4-0.0 Light drizzle. Fog.
2017-Feb-26 17:50 230 2 0.3-0.0 Drizzle. Fog.
2017-Feb-26 17:20 0.4 1.0 Light drizzle. Fog.
2017-Feb-26 16:50 0.6 1.0 Light drizzle. Mist. Patches of fog.
2017-Feb-26 16:20 1.5-0.0 Light drizzle. Mist.
2017-Feb-26 15:50 1.6 1.0 Drizzle. Mist.
2017-Feb-26 15:20 1.5 1.0 Drizzle. Mist.
2017-Feb-26 14:50 270 2 2.1 1.0 Drizzle. Mist.
2017-Feb-26 14:20 260 2 4.9 1.0 Light drizzle.
2017-Feb-26 13:50 240 4 5.4 1.0 Light drizzle.
2017-Feb-26 13:20 230 2 5.4 1.0
2017-Feb-26 12:50 210 4 5.4 1.0
2017-Feb-26 12:20 190 5 5.4 1.0
2017-Feb-26 11:50 200 6 5.4 1.0
2017-Feb-26 11:20 180 6 5.4 1.0
2017-Feb-26 10:50 170 6 5.4-0.0
2017-Feb-26 10:20 180 8 5.4-0.0
2017-Feb-26 09:50 170 7 5.4-0.0
2017-Feb-26 09:20 170 7 5.4-0.0 Light snow.
2017-Feb-26 08:50 160 8 5.4-1.0 Light snow.
2017-Feb-26 08:20 160 7 1.7-1.0 Snow. Mist.
2017-Feb-26 07:50 160 7 2.6-1.0 Snow. Mist.
2017-Feb-26 07:20 150 7 1.7-2.0 Snow. Mist.
2017-Feb-26 06:50 130 6 1.9-2.0 Snow. Mist.
2017-Feb-26 06:20 130 6 0.8-2.0 Snow. Mist.
2017-Feb-26 05:50 140 6 1.7-3.0 Snow. Mist.
2017-Feb-26 05:20 170 6 2.0-3.0 Snow.
2017-Feb-26 04:50 200 6 2.0-3.0 Snow.
2017-Feb-26 04:20 200 9 5.4-3.0 Light snow.
2017-Feb-26 03:50 200 7 5.4-3.0
2017-Feb-26 03:20 190 6 5.4-4.0
2017-Feb-26 02:50 200 6 5.4-4.0
2017-Feb-26 02:20 200 7 5.4-4.0
2017-Feb-26 01:50 210 7 5.4-5.0
2017-Feb-26 01:20 220 7 5.4-4.0
2017-Feb-26 00:50 220 6 5.4-4.0
2017-Feb-26 00:20 220 5 5.4-5.0
2017-Feb-25 23:50 230 6 5.4-5.0
2017-Feb-25 23:20 230 5 5.4-6.0
2017-Feb-25 22:50 220 5 5.4-6.0
2017-Feb-25 22:20 230 5 5.4-5.0